TimeEST,TemperatureF,Dew PointF,Humidity,Sea Level PressureIn,VisibilityMPH,Wind Direction,Wind SpeedMPH,Gust SpeedMPH,PrecipitationIn,Events,Conditions,WindDirDegrees,DateUTC
12:51 AM,48.0,42.1,80,30.26,10.0,ENE,4.6,-,N/A,,Overcast,70,2012-11-15 05:51:00
1:51 AM,48.0,41.0,77,30.25,10.0,East,6.9,-,N/A,,Overcast,90,2012-11-15 06:51:00
1:58 AM,48.2,41.0,76,30.25,10.0,East,6.9,-,N/A,,Overcast,80,2012-11-15 06:58:00
2:51 AM,46.9,41.0,80,30.25,10.0,ENE,10.4,-,N/A,,Overcast,70,2012-11-15 07:51:00
3:51 AM,46.9,41.0,80,30.24,10.0,East,6.9,-,N/A,,Overcast,80,2012-11-15 08:51:00
4:51 AM,46.9,41.0,80,30.25,10.0,East,6.9,-,N/A,,Overcast,80,2012-11-15 09:51:00
5:51 AM,46.9,41.0,80,30.25,10.0,ENE,6.9,-,N/A,,Overcast,60,2012-11-15 10:51:00
6:51 AM,46.9,41.0,80,30.27,10.0,NE,9.2,-,N/A,,Overcast,50,2012-11-15 11:51:00
7:26 AM,46.4,41.0,81,30.28,10.0,ENE,8.1,-,N/A,,Overcast,60,2012-11-15 12:26:00
7:51 AM,46.0,42.1,86,30.29,7.0,ENE,4.6,-,N/A,,Overcast,70,2012-11-15 12:51:00
8:20 AM,46.4,42.8,87,30.29,5.0,ENE,5.8,-,N/A,,Overcast,70,2012-11-15 13:20:00
8:51 AM,46.0,42.1,86,30.29,9.0,ENE,6.9,-,N/A,,Overcast,60,2012-11-15 13:51:00
9:27 AM,46.4,41.0,81,30.30,10.0,NE,6.9,-,N/A,,Overcast,50,2012-11-15 14:27:00
9:51 AM,46.9,41.0,80,30.30,10.0,ENE,5.8,-,N/A,,Overcast,60,2012-11-15 14:51:00
10:51 AM,48.2,41.0,76,30.30,10.0,ENE,4.6,-,N/A,,Overcast,60,2012-11-15 15:51:00
11:36 AM,50.0,42.8,76,30.28,10.0,ENE,5.8,-,N/A,,Overcast,70,2012-11-15 16:36:00
11:51 AM,50.0,41.0,71,30.28,10.0,NE,5.8,-,N/A,,Overcast,40,2012-11-15 16:51:00
12:51 PM,51.1,41.0,68,30.26,10.0,NNE,8.1,-,N/A,,Overcast,30,2012-11-15 17:51:00
1:51 PM,52.0,42.1,69,30.24,10.0,East,4.6,-,N/A,,Overcast,80,2012-11-15 18:51:00
2:51 PM,51.8,42.8,71,30.24,10.0,East,5.8,-,N/A,,Overcast,80,2012-11-15 19:51:00
3:51 PM,51.1,42.1,71,30.24,10.0,NE,9.2,-,N/A,,Overcast,40,2012-11-15 20:51:00
4:51 PM,50.0,42.1,74,30.24,10.0,NE,6.9,-,N/A,,Overcast,40,2012-11-15 21:51:00
5:51 PM,50.0,42.1,74,30.24,10.0,North,4.6,-,N/A,,Overcast,10,2012-11-15 22:51:00
6:51 PM,50.0,42.1,74,30.25,10.0,Calm,Calm,-,N/A,,Overcast,0,2012-11-15 23:51:00
7:51 PM,50.0,42.8,76,30.25,10.0,Calm,Calm,-,N/A,,Overcast,0,2012-11-16 00:51:00
8:51 PM,50.0,42.8,76,30.26,10.0,East,3.5,-,N/A,,Overcast,90,2012-11-16 01:51:00
9:51 PM,50.0,43.0,77,30.27,10.0,SE,3.5,-,N/A,,Overcast,130,2012-11-16 02:51:00
10:37 PM,50.0,42.8,76,30.27,10.0,East,8.1,-,N/A,,Overcast,80,2012-11-16 03:37:00
10:51 PM,48.9,43.0,80,30.27,10.0,East,10.4,-,N/A,,Overcast,100,2012-11-16 03:51:00
11:51 PM,48.9,43.0,80,30.27,10.0,ESE,9.2,-,N/A,,Overcast,110,2012-11-16 04:51:00